Phoenix Deer Valley, AZ

7:09 PM MST on November 12, 2019 (GMT -0700)
Phoenix-Deer Valley Municipal

Weather History for KDVT - September, 2019

Change the Weather History Date:

Friday, September 6, 2019

  Actual Average Record
Temperature  
Mean Temperature 94 °F -  
Max Temperature 104 °F 97 °F 106 °F (2013)
Min Temperature 84 °F 76 °F 71 °F (2002)
Cooling Degree Days 29    
Growing Degree Days 44 (Base 50)    
Moisture  
Dew Point 59 °F    
Average Humidity 32    
Maximum Humidity 44    
Minimum Humidity 21    
Precipitation  
Precipitation 0.00 in - - ()
Sea Level Pressure  
Sea Level Pressure 29.84 in    
Wind  
Wind Speed 5 mph ()    
Max Wind Speed 18 mph    
Max Gust Speed 22 mph    
Visibility 10.0 miles    
Events      
Averages and records for this station are not official NWS values.
T = Trace of Precipitation, MM = Missing Value Source: Averaged Metar Reports

Daily Weather History Graph

Daily Weather History Graph

Search for Another Location

Airport or City:

Astronomy

Sep. 06, 2019 Rise Set
Actual Time 6:05 AM MST 6:47 PM MST
Civil Twilight 5:40 AM MST 7:12 PM MST
Nautical Twilight 5:10 AM MST 7:42 PM MST
Astronomical Twilight 4:40 AM MST 8:12 PM MST
Moon 1:55 PM MST (9/6) No Moon Set
Length of Visible Light 13h 32m
Length of Day
12h 41m
First Quarter, 57% of the Moon is Illuminated
Sep 6
First Quarter
Sep 13
Full
Sep 21
Last Quarter
Sep 28
New
Oct 5
First Quarter

Hourly Weather History & Observations

Time (MST) Temp. Heat Index Dew Point Humidity Pressure Visibility Wind Dir Wind Speed Gust Speed Precip Events Conditions
12:53 AM 91.9 °F 91.2 °F 59.0 °F 33% 29.85 in 10.0 mi WSW 6.9 mph - N/A   Clear
1:53 AM 90.0 °F 90.0 °F 61.0 °F 38% 29.86 in 10.0 mi WSW 4.6 mph - N/A   Clear
2:53 AM 88.0 °F 88.4 °F 62.1 °F 42% 29.85 in 10.0 mi SSW 5.8 mph - N/A   Clear
3:53 AM 87.1 °F 87.0 °F 61.0 °F 41% 29.86 in 10.0 mi Calm Calm - N/A   Clear
4:53 AM 84.0 °F 84.0 °F 60.1 °F 44% 29.87 in 10.0 mi ESE 3.5 mph - N/A   Clear
5:53 AM 84.9 °F 85.0 °F 61.0 °F 44% 29.88 in 10.0 mi ESE 3.5 mph - N/A   Clear
6:53 AM 84.9 °F 84.8 °F 60.1 °F 43% 29.91 in 10.0 mi Calm Calm - N/A   Clear
7:53 AM 87.1 °F 86.5 °F 59.0 °F 39% 29.92 in 10.0 mi Calm Calm - N/A   Clear
8:53 AM 87.1 °F 86.1 °F 57.9 °F 37% 29.93 in 10.0 mi SSE 4.6 mph - N/A   Clear
9:53 AM 89.1 °F 89.3 °F 62.1 °F 40% 29.93 in 10.0 mi SSE 4.6 mph - N/A   Clear
11:53 AM 98.1 °F 98.6 °F 61.0 °F 29% 29.89 in 10.0 mi Variable 4.6 mph - N/A   Clear
12:53 PM 100.9 °F 100.5 °F 57.9 °F 24% 29.87 in 10.0 mi South 8.1 mph - N/A   Clear
1:53 PM 102.9 °F 101.9 °F 55.9 °F 21% 29.84 in 10.0 mi SSW 10.4 mph 16.1 mph N/A   Clear
2:53 PM 104.0 °F 104.0 °F 57.9 °F 22% 29.81 in 10.0 mi South 10.4 mph - N/A   Clear
3:53 PM 104.0 °F 104.0 °F 57.9 °F 22% 29.78 in 10.0 mi WSW 11.5 mph 17.3 mph N/A   Clear
4:53 PM 104.0 °F 104.0 °F 57.9 °F 22% 29.78 in 10.0 mi SW 9.2 mph 17.3 mph N/A   Clear
5:53 PM 102.0 °F 102.2 °F 59.0 °F 24% 29.77 in 10.0 mi WSW 18.4 mph 21.9 mph N/A   Clear
6:53 PM 100.9 °F 100.5 °F 57.9 °F 24% 29.77 in 10.0 mi WSW 9.2 mph - N/A   Clear
7:53 PM 100.0 °F 99.7 °F 57.9 °F 25% 29.78 in 10.0 mi West 5.8 mph - N/A   Clear
8:53 PM 98.1 °F 97.7 °F 59.0 °F 27% 29.80 in 10.0 mi SW 5.8 mph - N/A   Clear
9:53 PM 97.0 °F 96.5 °F 59.0 °F 28% 29.81 in 10.0 mi WSW 5.8 mph - N/A   Clear
10:53 PM 95.0 °F 93.7 °F 57.0 °F 28% 29.81 in 10.0 mi West 8.1 mph - N/A   Clear
11:53 PM 93.9 °F 92.6 °F 57.0 °F 29% 29.80 in 10.0 mi SW 5.8 mph - N/A   Clear